Location: Branche des Alpilles
(43.6087°N, 4.6976°E)
Time: 09:02:30
(UTC+00:00)

SAR-Lupe-4 - Pass Details

Date: 30 November 2020
Orbit: 481 x 484 km, 98.2° (Epoch: 09 January)

Event Time Altitude Azimuth Distance (km) Brightness Sun altitude
Exits shadow 17:54:17 41° 23° (NNE) 712 4.1 -19.1°
Maximum altitude 17:55:25 80° 102° (ESE) 498 3.4 -19.3°
Drops below altitude 10° 17:59:00 10° 191° (S) 1,661 6.5 -19.9°
Sets 18:01:03 0° 192° (SSW) 2,537 7.5 -20.3°
